When you browse on this site, cookies collect data to enhance your experience and personalize the content and advertising you see.
Visit our Privacy Policy to learn more. By continuing to use the site, you agree to this use of cookies and data.
  • Em Portugal
  • Lista de países
  • Para 7 dias
  • Temperatura da água
  • Mapa do tempo
  • Widgets de tempo
  • user-avatar
    Iniciar Sessão

    Previsão horária em Dhaka

    Hoje, 28 Maio, Quinta-feira

    Tempo Temperatura Precipitação Vento Pressão Humidade
    00:00 +32°C° 0 mm 6 m/s 753 mmHg 75%
    01:00 +30°C° 1.3 mm 5 m/s 752 mmHg 76%
    02:00 +30°C° 1.3 mm 5 m/s 752 mmHg 78%
    03:00 +29°C° 1.3 mm 5 m/s 751 mmHg 80%
    04:00 +29°C° 0 mm 4 m/s 751 mmHg 81%
    05:00 +29°C° 0 mm 3 m/s 751 mmHg 82%
    06:00 +29°C° 0 mm 2 m/s 751 mmHg 82%
    07:00 +31°C° 0 mm 3 m/s 752 mmHg 77%
    08:00 +33°C° 0 mm 4 m/s 752 mmHg 71%
    09:00 +34°C° 0 mm 4 m/s 753 mmHg 65%
    10:00 +34°C° 1.8 mm 4 m/s 753 mmHg 65%
    11:00 +35°C° 1.8 mm 5 m/s 752 mmHg 65%
    12:00 +35°C° 1.8 mm 5 m/s 752 mmHg 64%
    13:00 +35°C° 3.8 mm 5 m/s 751 mmHg 63%
    14:00 +36°C° 3.8 mm 4 m/s 751 mmHg 61%
    15:00 +36°C° 3.8 mm 4 m/s 750 mmHg 60%
    16:00 +33°C° 11.4 mm 4 m/s 750 mmHg 69%
    17:00 +29°C° 11.4 mm 5 m/s 750 mmHg 77%
    18:00 +26°C° 11.4 mm 5 m/s 750 mmHg 86%
    19:00 +26°C° 5.7 mm 5 m/s 751 mmHg 87%
    20:00 +25°C° 5.7 mm 5 m/s 752 mmHg 89%
    21:00 +25°C° 5.7 mm 5 m/s 753 mmHg 90%
    22:00 +25°C° 0.5 mm 4 m/s 753 mmHg 90%
    23:00 +25°C° 0.5 mm 3 m/s 753 mmHg 89%

    Amanhã, 29 Maio, Sexta-feira

    Tempo Temperatura Precipitação Vento Pressão Humidade
    00:00 +25°C° 0.5 mm 2 m/s 753 mmHg 89%
    01:00 +25°C° 0.5 mm 2 m/s 753 mmHg 89%
    02:00 +25°C° 0.5 mm 2 m/s 753 mmHg 88%
    03:00 +25°C° 0.5 mm 2 m/s 753 mmHg 88%
    04:00 +25°C° 0.8 mm 3 m/s 753 mmHg 87%
    05:00 +25°C° 0.8 mm 3 m/s 753 mmHg 87%
    06:00 +25°C° 0.8 mm 4 m/s 754 mmHg 87%
    07:00 +26°C° 0.2 mm 4 m/s 754 mmHg 84%
    08:00 +27°C° 0.2 mm 4 m/s 754 mmHg 80%
    09:00 +28°C° 0.2 mm 4 m/s 755 mmHg 77%
    10:00 +27°C° 1.9 mm 5 m/s 755 mmHg 80%
    11:00 +27°C° 1.9 mm 5 m/s 754 mmHg 83%
    12:00 +26°C° 1.9 mm 6 m/s 754 mmHg 86%
    13:00 +28°C° 0.9 mm 5 m/s 753 mmHg 77%
    14:00 +29°C° 0.9 mm 4 m/s 752 mmHg 68%
    15:00 +31°C° 0.9 mm 3 m/s 751 mmHg 60%
    16:00 +31°C° 0.9 mm 3 m/s 751 mmHg 63%
    17:00 +30°C° 0.9 mm 3 m/s 751 mmHg 66%
    18:00 +30°C° 0.9 mm 2 m/s 751 mmHg 69%
    19:00 +29°C° 0.2 mm 2 m/s 752 mmHg 72%
    20:00 +29°C° 0.2 mm 2 m/s 752 mmHg 75%
    21:00 +28°C° 0.2 mm 3 m/s 753 mmHg 77%
    22:00 +28°C° 0.5 mm 3 m/s 753 mmHg 81%
    23:00 +28°C° 0.5 mm 3 m/s 753 mmHg 84%

    Depois de amanhã, 30 Maio, Sábado

    Tempo Temperatura Precipitação Vento Pressão Humidade
    00:00 +28°C° 0.5 mm 3 m/s 753 mmHg 87%
    01:00 +28°C° 0 mm 3 m/s 753 mmHg 88%
    02:00 +28°C° 0 mm 2 m/s 753 mmHg 89%
    03:00 +27°C° 0 mm 1 m/s 753 mmHg 91%
    04:00 +28°C° 0.2 mm 1 m/s 753 mmHg 90%
    05:00 +28°C° 0.2 mm 1 m/s 753 mmHg 89%
    06:00 +26°C° 0.2 mm 0 m/s 754 mmHg 89%
    07:00 +29°C° 0 mm 1 m/s 754 mmHg 80%
    08:00 +31°C° 0 mm 1 m/s 754 mmHg 72%
    09:00 +33°C° 0 mm 1 m/s 755 mmHg 64%
    10:00 +35°C° 0.1 mm 2 m/s 755 mmHg 60%
    11:00 +36°C° 0.1 mm 3 m/s 754 mmHg 56%
    12:00 +37°C° 0.1 mm 3 m/s 754 mmHg 52%
    13:00 +37°C° 0.2 mm 3 m/s 754 mmHg 52%
    14:00 +38°C° 0.2 mm 4 m/s 753 mmHg 52%
    15:00 +38°C° 0.2 mm 4 m/s 752 mmHg 51%
    16:00 +37°C° 0.5 mm 4 m/s 752 mmHg 56%
    17:00 +36°C° 0.5 mm 4 m/s 752 mmHg 61%
    18:00 +35°C° 0.5 mm 4 m/s 752 mmHg 66%
    19:00 +34°C° 0.1 mm 4 m/s 752 mmHg 70%
    20:00 +33°C° 0.1 mm 4 m/s 753 mmHg 74%
    21:00 +32°C° 0.1 mm 5 m/s 753 mmHg 77%
    22:00 +32°C° 0.1 mm 5 m/s 753 mmHg 80%
    23:00 +32°C° 0.1 mm 5 m/s 754 mmHg 82%

    31 Maio, Domingo

    Tempo Temperatura Precipitação Vento Pressão Humidade
    00:00 +30°C° 0.1 mm 5 m/s 754 mmHg 84%
    01:00 +30°C° 0 mm 5 m/s 754 mmHg 85%
    02:00 +30°C° 0 mm 4 m/s 754 mmHg 86%
    03:00 +30°C° 0 mm 4 m/s 754 mmHg 86%
    04:00 +30°C° 0.8 mm 4 m/s 754 mmHg 86%
    05:00 +30°C° 0.8 mm 4 m/s 754 mmHg 86%
    06:00 +30°C° 0.8 mm 4 m/s 754 mmHg 86%
    07:00 +30°C° 6.1 mm 4 m/s 755 mmHg 85%
    08:00 +30°C° 6.1 mm 4 m/s 755 mmHg 83%
    09:00 +30°C° 6.1 mm 4 m/s 755 mmHg 82%
    10:00 +33°C° 2.9 mm 3 m/s 755 mmHg 76%
    11:00 +34°C° 2.9 mm 3 m/s 755 mmHg 70%
    12:00 +35°C° 2.9 mm 3 m/s 754 mmHg 64%
    13:00 +35°C° 1.6 mm 3 m/s 754 mmHg 65%
    14:00 +35°C° 1.6 mm 4 m/s 753 mmHg 66%
    15:00 +35°C° 1.6 mm 5 m/s 753 mmHg 66%
    16:00 +35°C° 1 mm 5 m/s 752 mmHg 69%
    17:00 +34°C° 1 mm 5 m/s 752 mmHg 72%
    18:00 +34°C° 1 mm 4 m/s 752 mmHg 75%
    19:00 +33°C° 0.6 mm 4 m/s 752 mmHg 77%
    20:00 +32°C° 0.6 mm 4 m/s 752 mmHg 80%
    21:00 +32°C° 0.6 mm 5 m/s 753 mmHg 83%
    22:00 +30°C° 0.1 mm 5 m/s 753 mmHg 84%
    23:00 +30°C° 0.1 mm 4 m/s 753 mmHg 85%

    1 Junho, Segunda-feira

    Tempo Temperatura Precipitação Vento Pressão Humidade
    00:00 +30°C° 0.1 mm 4 m/s 753 mmHg 86%
    01:00 +30°C° 0.4 mm 4 m/s 753 mmHg 86%
    02:00 +30°C° 0.4 mm 4 m/s 753 mmHg 87%
    03:00 +30°C° 0.4 mm 4 m/s 753 mmHg 87%
    04:00 +30°C° 0 mm 4 m/s 753 mmHg 87%
    05:00 +30°C° 0 mm 4 m/s 753 mmHg 86%
    06:00 +30°C° 0 mm 4 m/s 753 mmHg 85%
    07:00 +32°C° 0 mm 5 m/s 754 mmHg 80%
    08:00 +34°C° 0 mm 5 m/s 754 mmHg 75%
    09:00 +35°C° 0 mm 6 m/s 754 mmHg 70%
    10:00 +36°C° 0.1 mm 6 m/s 754 mmHg 66%
    11:00 +37°C° 0.1 mm 5 m/s 754 mmHg 62%
    12:00 +39°C° 0.1 mm 5 m/s 754 mmHg 58%
    13:00 +39°C° 1.8 mm 5 m/s 753 mmHg 59%
    14:00 +38°C° 1.8 mm 4 m/s 752 mmHg 60%
    15:00 +37°C° 1.8 mm 4 m/s 752 mmHg 61%
    16:00 +36°C° 2.3 mm 5 m/s 751 mmHg 65%
    17:00 +35°C° 2.3 mm 6 m/s 751 mmHg 70%
    18:00 +34°C° 2.3 mm 6 m/s 751 mmHg 75%
    19:00 +33°C° 1.5 mm 6 m/s 751 mmHg 77%
    20:00 +33°C° 1.5 mm 6 m/s 751 mmHg 80%
    21:00 +32°C° 1.5 mm 6 m/s 752 mmHg 83%
    22:00 +32°C° 0 mm 5 m/s 752 mmHg 84%
    23:00 +30°C° 0 mm 4 m/s 752 mmHg 85%

    2 Junho, Terça-feira

    Tempo Temperatura Precipitação Vento Pressão Humidade
    00:00 +30°C° 0 mm 3 m/s 752 mmHg 86%
    01:00 +30°C° 0 mm 3 m/s 752 mmHg 85%
    02:00 +30°C° 0 mm 4 m/s 752 mmHg 84%
    03:00 +30°C° 0 mm 4 m/s 751 mmHg 83%
    04:00 +30°C° 0 mm 4 m/s 751 mmHg 83%
    05:00 +30°C° 0 mm 5 m/s 752 mmHg 83%
    06:00 +30°C° 0 mm 5 m/s 752 mmHg 83%
    07:00 +32°C° 0 mm 6 m/s 752 mmHg 79%
    08:00 +33°C° 0 mm 6 m/s 752 mmHg 76%
    09:00 +34°C° 0 mm 6 m/s 752 mmHg 73%
    10:00 +35°C° 0 mm 6 m/s 752 mmHg 69%
    11:00 +36°C° 0 mm 6 m/s 752 mmHg 66%
    12:00 +38°C° 0 mm 6 m/s 752 mmHg 63%
    13:00 +39°C° 0 mm 6 m/s 751 mmHg 61%
    14:00 +39°C° 0 mm 6 m/s 750 mmHg 60%
    15:00 +40°C° 0 mm 6 m/s 750 mmHg 58%
    16:00 +39°C° 1 mm 6 m/s 749 mmHg 63%
    17:00 +36°C° 1 mm 6 m/s 749 mmHg 67%
    18:00 +35°C° 1 mm 7 m/s 748 mmHg 71%
    19:00 +34°C° 2.3 mm 6 m/s 749 mmHg 75%
    20:00 +33°C° 2.3 mm 6 m/s 749 mmHg 78%
    21:00 +32°C° 2.3 mm 6 m/s 750 mmHg 82%
    22:00 +30°C° 0 mm 6 m/s 750 mmHg 83%
    23:00 +30°C° 0 mm 6 m/s 750 mmHg 85%
    Mostrar mais